Probability
0 0 0 0 0 0 0 0 1 2 4 5 4 4 5 5 4 6 12 24 40 49 50 48 46 45 42 40 43 47 49 50 48 47 50 51 48 45 42 39 35 34 33 30
0 0 0 0 0 0 0 0 1 2 3 5 6 6 7 7 7 10 17 28 41 49 51 50 48 46 43 43 46 51 54 54 52 51 52 51 47 44 43 40 37 37 35 32
0 0 0 0 0 0 0 0 1 3 5 8 10 10 10 12 14 17 22 31 40 46 50 51 50 48 46 46 49 54 57 56 54 53 52 49 46 45 45 44 42 42 39 35
0 0 0 0 0 0 0 1 3 7 9 11 13 13 14 17 20 24 27 32 38 42 45 47 48 49 48 47 49 52 54 53 52 49 48 47 46 46 47 47 46 44 40 37
1 0 0 0 0 0 1 3 7 11 12 13 14 16 20 23 25 27 29 30 33 37 41 45 47 49 47 45 45 47 48 49 48 46 45 46 46 46 47 46 45 41 38 37
1 0 0 0 0 0 1 5 11 14 15 17 19 22 26 29 29 29 28 28 30 36 43 48 50 49 46 43 42 42 43 45 46 46 45 45 45 45 44 41 38 34 34 36
1 1 2 3 3 5 9 13 16 16 18 22 26 30 32 33 31 29 29 30 34 42 49 52 51 49 46 43 41 40 42 44 46 46 43 42 43 41 39 36 33 32 32 33
5 6 10 12 12 16 22 24 20 18 20 26 31 35 36 35 33 31 31 34 40 47 51 51 49 48 46 43 42 42 43 45 46 44 39 38 38 37 34 33 30 30 29 27
11 13 17 19 19 22 23 22 20 19 22 26 30 35 37 36 34 32 33 37 41 45 50 49 46 45 44 43 44 45 46 47 46 43 39 37 36 32 31 29 26 24 22 19
15 15 16 17 15 15 15 15 17 19 20 21 27 33 35 35 34 33 33 36 39 43 46 46 44 42 43 45 46 46 45 45 43 40 38 36 32 27 24 22 19 17 17 17
17 16 15 13 11 10 13 16 18 19 18 19 25 31 34 34 34 33 32 33 37 41 43 43 43 43 43 45 45 43 41 40 37 34 33 31 25 20 17 16 14 13 14 14
18 17 16 14 12 12 14 18 20 21 21 23 26 29 32 34 34 31 30 31 35 40 42 43 44 43 43 45 45 43 40 37 33 30 29 25 20 16 13 11 9 7 7 7
17 15 14 13 13 13 14 16 18 21 24 25 26 25 27 30 29 27 28 29 32 36 39 41 42 42 43 44 44 44 41 36 32 29 28 25 22 20 17 12 8 5 3 1
17 15 14 14 13 12 13 14 16 18 20 21 22 21 23 25 25 24 25 26 26 29 33 37 38 39 40 41 40 40 38 34 31 29 28 27 25 25 22 18 15 11 7 3
19 17 16 15 14 12 13 14 15 16 17 16 17 18 19 21 22 23 23 23 22 25 31 34 34 34 35 34 33 33 31 29 28 27 25 25 25 24 24 22 21 19 14 9
17 16 15 15 13 11 11 11 12 14 15 14 16 18 18 20 22 23 23 23 25 28 33 36 34 32 31 29 28 26 24 22 21 20 19 19 20 21 23 23 22 21 18 15
16 14 14 13 12 9 7 7 10 12 13 14 17 19 19 19 20 22 23 24 27 31 34 36 36 34 31 30 27 23 19 15 13 13 13 13 14 17 21 22 20 19 18 16
15 14 14 13 9 5 3 5 9 10 10 11 15 20 21 19 19 20 21 23 25 29 33 34 34 33 31 30 27 23 19 14 10 10 11 11 10 12 14 16 15 15 14 12
12 13 13 12 8 5 5 7 9 9 10 12 16 21 22 21 19 18 19 19 19 23 29 31 27 26 28 27 25 22 19 13 9 9 10 9 8 9 9 10 9 8 7 8
8 9 10 10 9 8 9 11 11 12 14 17 20 21 21 20 19 18 17 16 16 18 24 25 22 22 24 23 19 17 15 10 8 9 9 8 6 7 7 7 5 4 4 4
6 6 7 9 11 12 13 12 13 15 19 21 23 22 20 19 19 19 19 16 16 18 19 20 20 21 21 18 13 12 11 8 7 8 7 6 5 5 6 5 4 3 3 3
7 6 7 9 12 14 14 13 13 16 19 22 23 23 21 18 17 18 19 16 14 14 15 16 17 16 15 11 9 8 8 6 6 7 6 5 5 5 6 6 6 5 3 3
8 8 9 11 13 14 15 14 13 14 18 21 23 23 20 16 14 14 13 10 8 8 10 12 11 9 7 7 7 6 5 5 5 5 5 5 5 5 6 6 6 5 4 3
7 9 11 12 11 12 13 13 12 12 16 20 22 20 17 14 11 9 7 6 5 5 7 6 5 2 3 6 6 4 4 4 5 5 5 5 4 4 4 4 4 4 3 2
7 9 12 12 10 10 10 11 11 12 14 16 17 15 13 10 8 8 8 6 5 5 4 3 1 0 2 5 5 4 3 4 4 5 5 4 2 2 2 3 3 2 1 1
9 9 11 10 10 11 10 9 10 11 13 13 12 10 8 7 8 9 9 8 6 4 3 2 1 1 2 4 4 3 3 2 3 3 3 2 1 1 2 2 2 2 0 0
9 9 10 10 11 12 12 10 9 11 12 12 9 8 7 7 9 10 10 9 6 4 3 1 1 2 3 3 3 3 2 1 1 1 1 1 1 2 3 3 3 2 1 0
Wind_Speed
12 11 11 11 14 14 13 12 10 6 5 6 4 1 1 3 5 7 7 7 6 6 5 5 5 4 4 5 5 6 6 5 5 5 5 4 4 3 3 2 2 2 2 1
12 13 14 14 14 14 13 12 9 6 5 5 4 3 2 2 3 4 5 6 7 6 6 5 6 5 5 4 4 5 5 5 5 5 5 4 4 3 3 2 2 2 2 2
12 12 14 15 13 11 11 10 7 6 4 4 3 4 3 2 4 3 4 4 5 5 4 4 5 5 5 4 4 4 5 4 4 4 4 3 3 3 3 3 2 2 2 2
11 11 15 9 10 10 8 5 2 2 2 2 4 2 3 3 4 5 4 3 4 4 5 5 6 6 5 5 4 4 4 4 4 3 3 2 2 2 2 2 2 2 2 2
10 12 13 10 7 6 6 4 2 2 2 2 3 4 1 2 4 4 5 4 5 5 4 5 5 6 5 5 5 4 3 3 3 3 3 3 2 2 2 1 1 2 2 2
10 13 12 7 4 5 7 5 1 1 1 2 3 3 2 5 6 5 5 5 5 5 6 6 5 5 4 5 5 4 3 3 2 2 3 3 3 2 1 1 1 2 1 1
13 14 9 3 3 4 6 1 2 1 1 1 2 3 5 5 6 5 4 6 6 6 6 5 4 4 3 3 3 3 3 3 3 2 3 3 2 2 1 2 2 2 2 2
11 12 6 2 2 1 3 4 4 3 2 4 6 6 5 5 5 5 5 5 6 6 5 4 4 4 3 2 2 3 3 3 3 3 3 3 3 2 2 2 2 3 3 2
4 2 3 5 5 5 4 3 3 3 4 4 5 5 5 5 5 5 4 4 4 5 5 4 3 3 2 1 2 2 2 2 2 2 2 2 2 2 2 2 2 2 2 2
3 2 3 4 5 4 3 3 3 3 2 0 3 5 4 4 4 4 4 3 3 3 4 3 3 2 2 2 1 1 2 1 2 2 2 2 1 2 2 1 1 2 2 2
3 1 0 3 3 2 2 3 4 2 2 1 3 4 4 3 4 3 3 3 2 2 3 3 3 2 2 2 1 0 1 2 3 2 2 2 2 2 2 2 2 3 2 1
3 1 2 1 1 3 3 2 3 3 3 3 3 3 3 3 3 2 2 2 2 2 2 2 2 2 2 2 1 0 1 2 2 2 2 2 2 2 1 2 3 3 3 2
3 1 1 2 2 2 2 2 2 2 2 2 2 2 2 2 2 2 2 2 2 2 2 2 1 1 1 1 1 1 2 2 2 2 2 2 3 2 2 1 2 2 3 4
3 1 1 1 2 2 1 1 2 2 1 1 1 2 2 2 2 2 1 1 0 1 1 1 1 1 1 1 1 1 2 2 3 2 2 2 2 2 2 2 2 3 5 7
3 2 1 0 2 2 1 0 1 1 0 1 0 2 2 2 2 2 1 0 0 1 0 1 1 1 1 1 2 2 2 2 2 2 2 2 2 2 2 2 2 1 1 3
3 3 2 3 3 3 3 3 2 2 2 1 1 1 2 2 2 2 1 1 1 1 0 0 0 0 1 1 2 2 2 2 1 2 3 2 2 2 2 1 2 2 2 1
4 4 4 4 3 3 4 3 2 2 2 2 2 2 2 2 1 2 1 1 1 1 1 1 1 1 1 1 2 2 2 1 2 2 3 2 2 2 2 2 2 2 2 1
4 4 4 4 4 3 3 3 2 3 3 3 2 3 3 3 3 3 2 2 2 1 2 2 1 1 1 1 1 2 2 2 2 2 2 2 2 2 3 3 3 3 2 1
4 5 4 3 3 3 4 3 3 3 2 3 3 3 3 4 4 3 3 3 3 3 2 2 2 2 2 2 2 2 3 3 3 2 2 1 2 3 3 3 3 3 3 2
2 2 2 3 3 3 3 2 3 3 3 4 3 3 3 4 3 3 3 3 3 3 2 2 2 2 3 2 3 3 3 3 3 2 2 2 2 2 2 3 3 2 2 3
2 2 2 3 3 2 2 2 3 3 3 3 3 4 4 4 3 3 3 4 3 2 3 3 3 2 2 2 3 3 3 3 3 2 2 2 2 2 2 2 2 2 2 3
3 2 3 3 3 2 2 2 2 3 3 4 4 4 3 3 3 3 3 3 3 3 3 3 3 1 1 3 3 3 3 3 3 2 2 2 2 2 2 2 2 2 3 3
3 3 4 4 3 3 3 2 3 3 3 2 2 3 3 2 2 2 2 1 2 2 3 2 1 2 1 3 3 3 3 3 2 2 2 1 1 1 1 2 2 2 3 3
3 3 3 4 3 3 3 3 2 2 2 2 1 1 2 2 2 2 2 2 1 2 1 2 3 1 3 3 2 2 2 2 2 1 1 1 1 1 2 2 2 3 3 3
3 3 3 4 3 3 4 3 3 3 3 2 2 3 2 2 2 1 1 2 4 3 2 3 4 4 3 2 1 1 1 1 1 1 1 1 2 2 2 2 3 3 3 3
3 3 2 2 3 3 3 2 2 2 2 1 1 1 2 2 2 2 2 3 4 3 2 2 3 3 2 1 1 1 1 1 1 1 0 0 1 2 2 2 3 3 3 3
3 2 2 2 2 2 2 1 1 1 1 1 1 1 1 1 1 1 2 2 3 3 2 2 2 2 2 1 1 1 1 1 0 1 1 1 1 1 2 2 2 2 3 3
Wind_Direction
258 254 254 256 258 259 248 251 260 248 226 227 214 212 226 162 155 154 155 157 136 129 136 143 143 142 148 163 163 162 165 173 172 176 170 170 167 169 172 184 185 173 188 208
257 254 257 257 254 258 257 253 259 247 227 213 179 159 208 170 150 165 153 148 144 144 150 156 155 157 155 157 161 154 164 172 164 168 165 169 173 170 169 181 191 186 198 211
261 260 265 257 250 254 261 259 252 252 239 187 156 178 176 161 157 155 133 132 138 144 147 153 147 139 147 156 153 154 156 153 147 157 161 169 184 167 177 187 193 203 211 219
259 257 256 263 269 259 256 269 285 229 226 175 150 139 125 188 150 137 124 133 141 143 151 152 148 150 152 153 149 147 147 144 142 146 149 157 182 185 191 202 208 217 219 227
257 253 254 260 263 273 269 258 257 239 219 188 160 157 107 90 91 107 121 121 119 127 139 134 140 140 144 148 144 141 147 153 165 169 165 173 191 203 194 211 224 230 231 233
253 258 255 250 259 267 265 252 295 276 244 170 186 191 142 93 86 85 97 104 112 121 114 108 112 124 150 152 148 154 161 165 165 168 180 183 178 187 181 199 228 245 241 229
245 255 261 278 301 277 251 296 34 37 341 99 91 80 95 103 107 104 108 109 107 100 95 96 106 117 145 151 153 152 154 155 157 166 189 182 156 166 183 208 218 239 242 235
241 250 251 6 286 339 48 36 26 21 26 72 87 87 96 107 115 113 98 97 105 104 100 96 109 126 143 145 140 144 153 158 161 171 212 181 158 181 199 214 226 234 238 241
246 246 78 54 51 57 63 52 23 18 37 62 87 99 99 100 94 97 97 95 106 112 114 116 122 129 138 118 114 132 141 152 168 182 208 176 174 191 207 212 233 238 231 240
251 173 117 85 57 31 29 25 16 39 53 51 123 120 112 100 97 94 94 99 106 122 134 132 121 113 101 80 90 156 172 173 192 197 200 171 187 197 210 226 240 274 269 263
258 227 109 81 34 345 25 17 355 17 37 45 106 114 112 104 103 98 97 96 101 104 111 114 110 108 114 102 96 115 214 209 217 213 204 189 203 220 211 217 206 218 256 267
257 327 325 4 329 331 10 15 9 19 33 43 84 108 110 103 101 96 95 89 91 92 106 102 107 115 118 120 117 205 244 245 240 226 208 216 214 227 237 219 184 194 214 239
308 343 345 320 323 13 16 360 7 15 38 38 53 108 124 118 118 106 98 92 90 102 107 113 116 119 130 137 161 211 258 264 268 256 233 232 234 226 210 200 226 238 236 240
317 347 118 291 333 349 348 358 6 5 35 60 80 136 149 148 137 125 105 106 123 117 117 142 159 150 142 140 166 219 257 256 265 262 265 264 262 263 248 221 218 237 237 233
294 310 287 11 307 304 292 296 302 296 4 41 86 148 152 147 139 137 124 195 170 143 175 187 159 135 150 180 201 222 239 250 254 273 274 269 269 268 268 274 279 268 233 224
282 262 250 238 246 265 262 238 230 225 223 224 243 196 161 160 157 158 183 228 218 228 241 164 144 190 207 218 217 217 223 240 253 277 275 269 276 285 292 295 296 295 299 309
255 239 228 240 242 255 264 260 232 219 224 233 230 226 199 184 196 204 203 212 217 215 225 218 215 226 222 220 230 236 241 224 212 256 272 280 289 299 302 295 293 288 280 257
269 266 240 236 241 251 267 262 248 240 241 242 233 222 212 209 218 213 219 230 227 220 235 228 214 211 197 196 246 253 251 241 222 243 262 285 301 306 302 298 299 301 305 289
248 254 250 255 252 243 251 253 256 259 264 256 237 219 218 218 218 212 208 217 224 231 235 213 204 215 218 212 242 233 244 253 250 240 243 233 265 281 285 290 297 302 304 305
253 271 296 287 270 261 263 268 269 261 253 242 232 223 225 231 228 219 210 230 241 244 213 188 205 223 228 216 235 246 249 259 261 266 268 262 267 281 291 297 305 310 317 317
305 288 286 288 291 289 278 276 274 276 285 269 242 230 219 219 222 220 218 228 227 216 206 192 213 232 233 246 232 250 255 257 260 264 271 279 284 295 304 312 315 320 319 315
309 301 299 299 302 299 287 283 280 272 274 266 246 232 212 212 221 219 221 231 217 193 205 202 207 193 247 266 240 249 259 263 270 276 275 280 291 305 319 325 323 316 311 308
315 310 309 305 304 301 295 285 282 277 272 267 240 222 219 225 232 230 221 210 216 208 216 199 164 149 246 254 250 253 257 260 266 271 278 285 294 314 317 311 311 309 310 314
300 302 308 301 292 289 283 276 279 283 272 257 231 212 214 220 236 237 216 176 168 196 195 141 151 196 250 254 260 263 273 277 273 274 286 276 280 291 297 303 312 321 325 320
295 299 294 290 279 269 258 250 242 238 237 223 202 207 217 215 222 227 186 152 158 179 193 171 181 217 240 250 244 259 279 303 306 318 326 332 328 318 318 327 332 331 328 328
280 276 282 274 276 272 263 250 245 239 229 220 211 203 205 192 191 194 191 175 181 200 210 181 190 211 222 222 221 234 239 218 232 260 294 312 307 314 331 340 342 339 338 338
269 259 258 268 272 278 283 274 258 254 236 214 201 201 226 227 212 198 189 176 174 190 196 193 196 202 206 207 217 221 213 229 294 339 350 360 3 0 359 360 352 347 341 333